Weather Roundup
Issued by NWS Chicago, IL

Home | Current Version | Previous Version | Text Only | Print | Product List | Glossary On
Versions: 1 2 3 4 5 6 7 8 9 10 11 12 13 14 15 16 17 18 19 20 21 22 23 24 25 26 27 28 29 30 31 32 33 34 35 36 37 38 39 40 41 42 43 44 45 46 47 48 49 50
000
NZUS59 KLOT 271808
HRRLOT

CHICAGO AREA WEATHER ROUNDUP
NATIONAL WEATHER SERVICE CHICAGO/ROMEOVILLE IL
100 PM CDT WED JUL 27 2016

NOTE: "FAIR" INDICATES FEW OR NO CLOUDS BELOW 12,000 FEET WITH NO
SIGNIFICANT WEATHER AND/OR OBSTRUCTIONS TO VISIBILITY.

* THESE STATIONS ARE NOT UNDER NWS QUALITY CONTROL. THEY ALSO MAY NOT
  REPORT WEATHER SUCH AS PRECIPITATION OR FOG.

ILZ005-006-012>014-019>023-271900-
NORTHEAST ILLINOIS

CITY           SKY/WX    TMP DP  RH WIND       PRES   REMARKS
OHARE          MOSUNNY   87  65  47 SW7       30.00F HX  89
6HR MIN TEMP:  72; 6HR MAX TEMP:  87;

MIDWAY         MOSUNNY   88  63  43 SW6       30.00F HX  89
6HR MIN TEMP:  74; 6HR MAX TEMP:  88;

AURORA         MOSUNNY   85  69  58 MISG      30.02F HX  89
6HR MIN TEMP:  67; 6HR MAX TEMP:  86;

LANSING*       PTSUNNY   85  64  49 W10       30.01F HX  87
JOLIET*        MOSUNNY   86  70  58 SW5       30.02F HX  91
WAUKEGAN       MOSUNNY   88  65  46 NW8       30.00F HX  90
6HR MIN TEMP:  73; 6HR MAX TEMP:  88;

DUPAGE AIRPORT MOSUNNY   86  64  47 VRB6      30.02F HX  87
6HR MIN TEMP:  70; 6HR MAX TEMP:  86;

WHEELING       PTSUNNY   87  62  43 SW7       30.02F HX  87
6HR MIN TEMP:  71; 6HR MAX TEMP:  88;

KANKAKEE*      MOSUNNY   86  67  54 SW5       30.04F HX  89
MORRIS*        MOSUNNY   84  69  59 CALM      30.01F HX  88
LEWIS AIRPORT* PTSUNNY   83  66  56 W6        30.02F HX  85
NORTHERLY ISL    N/A     82  70  66 SE3         N/A  HX  86
$$

WIZ051-052-058>065-066-070>072-271900-
SOUTHEAST WISCONSIN

CITY           SKY/WX    TMP DP  RH WIND       PRES   REMARKS
MILWAUKEE      PTSUNNY   87  67  51 VRB5      29.99F HX  90
6HR MIN TEMP:  76; 6HR MAX TEMP:  89;

KENOSHA*       MOSUNNY   85  66  53 NW6       30.01F HX  87
RACINE*        MOSUNNY   86  67  52 VRB5      30.02F HX  89
BURLINGTON     MOSUNNY   85  64  48 CALM      30.01F HX  86
WAUKESHA       MOSUNNY   82  66  57 W7        30.03S HX  85
WEST BEND      PTSUNNY   88  64  45 SW9       29.99F HX  89
$$

INZ001>003-010>013-019-020-271900-
NORTHWEST INDIANA

CITY           SKY/WX    TMP DP  RH WIND       PRES   REMARKS
GARY*          MOSUNNY   86  72  62 N6        30.02F HX  92
MICHIGAN CITY* NOT AVBL
RENSSELAER*    NOT AVBL
VALPARAISO     PTSUNNY   85  65  51 SW6       30.03S HX  86
$$

LMZ740>746-271900-
SOUTHERN LAKE MICHIGAN

STATION/POSITION TIME  SKY/WX   TEMP WIND        PRES    VSBY
                                AIR  DIR/SP/G
                 (UTC)          (F)  (DEG/KT/KT) (MB)    (MI)
HARRISON CRIB    1700            80  110/  7/  7   N/A
BURNHAM HARBOR   1800            83  170/  3/  7   N/A
CALUMET HARBOR   NOT AVBL
BURNS HARBOR     1700            77  360/  5/  6 1017.3R
MICHIGAN CITY    1700            80  330/  5/  5   N/A
$$

ABBREVIATIONS USED IN REMARKS
   TC - TEMPERATURE IN CELSIUS
  WCI - WIND CHILL INDEX
   HX - HEAT INDEX
  VSB - VISIBILITY
$$




USA.gov is the U.S. government's official web portal to all federal, state and local government web resources and services.